KUIPER-00086

Last updated on Sat Aug 16 2025 00:02:06 GMT+0000 (Coordinated Universal Time)

1 64832U 25151S 25227.47130769 .00045318 00000+0 12934-2 0 9993 2 64832 51.8781 142.0501 0005046 275.9458 84.0953 15.35575819 4634
UTC large
Height (km)
Speed (km/s)
/
Latitude / Longitude
Inclination (degrees)
Orbital Period (minutes)
Azimuth
Elevation
Range (km)
Doppler Factor

Next 0 passes for location: London (51.5072 / 0.1276)

Sorry there are no passes over London.